Minneapolis Crystal, MN

7:56 AM CDT on April 22, 2018 (GMT -0500)
Crystal

Weather History for KMIC - February, 2013

Change the Weather History Date:

Monday, February 25, 2013

  Actual Average Record
Temperature  
Mean Temperature 27 °F -  
Max Temperature 36 °F 29 °F 52 °F (1998)
Min Temperature 15 °F 15 °F -8 °F (2014)
Degree Days  
Heating Degree Days 38    
Moisture  
Dew Point 19 °F    
Average Humidity 73    
Maximum Humidity 91    
Minimum Humidity 52    
Precipitation  
Precipitation 0.00 in - - ()
Sea Level Pressure  
Sea Level Pressure 30.10 in    
Wind  
Wind Speed 0 mph (NNW)    
Max Wind Speed 5 mph    
Max Gust Speed -    
Visibility 7 miles    
Events      
Averages and records for this station are not official NWS values.
T = Trace of Precipitation, MM = Missing Value Source: NWS Daily Summary

Daily Weather History Graph

Daily Weather History Graph

Search for Another Location

Airport or City:

Astronomy

Feb. 25, 2013 Rise Set
Actual Time 6:57 AM CST 5:55 PM CST
Civil Twilight 6:28 AM CST 6:25 PM CST
Nautical Twilight 5:54 AM CST 6:59 PM CST
Astronomical Twilight 5:20 AM CST 7:33 PM CST
Moon 6:12 PM CST (2/25) 6:26 AM CST (2/25)
Length of Visible Light 11h 57m
Length of Day
10h 58m
Full, 100% of the Moon is Illuminated
Feb 25
Full
Feb 25
Full
Mar 4
Last Quarter
Mar 11
New
Mar 19
First Quarter

Hourly Weather History & Observations

Time (CST) Temp. Windchill Dew Point Humidity Pressure Visibility Wind Dir Wind Speed Gust Speed Precip Events Conditions
12:53 AM 21.9 °F - 18.0 °F 85% 30.12 in 9.0 mi Calm Calm - N/A   Overcast
1:53 AM 24.1 °F - 19.0 °F 81% 30.12 in 9.0 mi Calm Calm - N/A   Overcast
2:53 AM 24.1 °F - 19.0 °F 81% 30.11 in 9.0 mi Calm Calm - N/A   Overcast
3:53 AM 24.1 °F - 19.0 °F 81% 30.09 in 8.0 mi Calm Calm - N/A   Overcast
4:53 AM 25.0 °F - 19.0 °F 78% 30.10 in 8.0 mi Calm Calm - N/A   Overcast
5:53 AM 25.0 °F - 19.0 °F 78% 30.10 in 8.0 mi Calm Calm - N/A   Overcast
6:53 AM 25.0 °F 20.7 °F 19.9 °F 81% 30.12 in 8.0 mi NNW 3.5 mph - N/A   Overcast
7:53 AM 25.0 °F - 19.9 °F 81% 30.12 in 6.0 mi Calm Calm - N/A   Haze
8:53 AM 26.1 °F - 19.9 °F 78% 30.13 in 5.0 mi Calm Calm - N/A   Haze
9:53 AM 28.0 °F - 19.9 °F 72% 30.13 in 5.0 mi Calm Calm - N/A   Haze
10:53 AM 28.9 °F - 19.9 °F 69% 30.13 in 6.0 mi Calm Calm - N/A   Haze
11:53 AM 30.0 °F - 19.0 °F 64% 30.13 in 6.0 mi Calm Calm - N/A   Haze
12:53 PM 34.0 °F - 19.9 °F 56% 30.10 in 7.0 mi Calm Calm - N/A   Scattered Clouds
1:53 PM 35.1 °F 32.2 °F 19.9 °F 54% 30.09 in 8.0 mi NNE 3.5 mph - N/A   Clear
2:53 PM 36.0 °F - 19.9 °F 52% 30.07 in 8.0 mi Calm Calm - N/A   Clear
3:53 PM 36.0 °F - 19.9 °F 52% 30.08 in 7.0 mi Calm Calm - N/A   Clear
4:53 PM 34.0 °F - 21.0 °F 59% 30.08 in 7.0 mi Calm Calm - N/A   Clear
5:53 PM 32.0 °F 27.5 °F 19.9 °F 61% 30.07 in 7.0 mi NNW 4.6 mph - N/A   Clear
6:53 PM 28.9 °F 23.9 °F 19.0 °F 67% 30.08 in 8.0 mi NNW 4.6 mph - N/A   Clear
7:53 PM 23.0 °F - 18.0 °F 81% 30.10 in 7.0 mi Calm Calm - N/A   Clear
8:53 PM 21.9 °F - 17.1 °F 82% 30.09 in 5.0 mi Calm Calm - N/A   Haze
9:53 PM 19.0 °F - 16.0 °F 88% 30.07 in 4.0 mi Calm Calm - N/A   Clear
10:53 PM 18.0 °F - 15.1 °F 88% 30.07 in 4.0 mi Calm Calm - N/A   Clear
11:53 PM 15.1 °F - 12.9 °F 91% 30.08 in 2.0 mi Calm Calm - N/A   Clear